User: anonymous   Login
Location: Калининград
(54.7101°N, 20.5106°E)
Time: 17:31:25
(UTC+02:00)
Language:

ISS - Orbit

View from above orbital plane
View from above orbital plane
View from above satellite
View from above satellite

Ground track
Ground track

The orbit data is extracted from the following two-line orbital elements,

1 25544U 98067A   21214.88086691 -.00000636  00000-0 -34509-5 0  9999
2 25544  51.6433 111.8195 0001239 241.3032 212.0072 15.48861899295830
Epoch (UTC): 02 August 2021 21:08:26
Eccentricity: 0.0001239
inclination: 51.6433°
perigee height: 419 km
apogee height: 421 km
right ascension of ascending node: 111.8195°
argument of perigee: 241.3032°
revolutions per day: 15.48861899
mean anomaly at epoch: 212.0072°
orbit number at epoch: 29583

The dashed part of the orbit path shows where the satellite is in the earth's shadow,  

DLR